This is the latest recevied weather packets stored in our database for station/object DB0OHA-10. If no packets are shown the sender has not sent any weather packets the latest 10 day(s).
| Time | Temp. | Humidity | Pressure | Rain* | Wind** | Luminosity | Snow |
|---|---|---|---|---|---|---|---|
| 1777039228 | 13.33° C | 59% | 1019.4 hPa | 0 mm | - | 529 W/m² | - |
| 1777038328 | 13.33° C | 59% | 1019.4 hPa | 0 mm | - | 603 W/m² | - |
| 1777037428 | 12.78° C | 58% | 1019.4 hPa | 0 mm | - | 596 W/m² | - |
| 1777036528 | 12.78° C | 58% | 1019.7 hPa | 0 mm | - | 552 W/m² | - |
| 1777035628 | 12.78° C | 58% | 1019.9 hPa | 0 mm | - | 594 W/m² | - |
| 1777034728 | 12.22° C | 54% | 1020.2 hPa | 0 mm | - | 682 W/m² | - |
| 1777033828 | 11.67° C | 55% | 1020.3 hPa | 0 mm | - | 622 W/m² | - |
| 1777032928 | 11.67° C | 44% | 1020.5 hPa | 0 mm | - | 715 W/m² | - |
| 1777032028 | 11.11° C | 44% | 1020.7 hPa | 0 mm | - | 513 W/m² | - |
| 1777031128 | 10.56° C | 37% | 1020.7 hPa | 0 mm | - | 550 W/m² | - |
| 1777030228 | 9.44° C | 25% | 1020.8 hPa | 0 mm | - | 439 W/m² | - |
| 1777029328 | 9.44° C | 21% | 1020.9 hPa | 0 mm | - | 366 W/m² | - |
| 1777028428 | 8.89° C | 3% | 1020.9 hPa | 0 mm | - | 364 W/m² | - |
| 1777027528 | 8.89° C | 1% | 1020.9 hPa | 0 mm | - | 292 W/m² | - |
| 1777026628 | 8.33° C | 1% | 1021 hPa | 0 mm | - | 246 W/m² | - |
| 1777025728 | 8.33° C | 1% | 1021.1 hPa | 0 mm | - | 276 W/m² | - |
| 1777024829 | 7.78° C | 1% | 1021.1 hPa | 0 mm | - | 227 W/m² | - |
| 1777023928 | 7.22° C | 1% | 1021.1 hPa | 0 mm | - | 229 W/m² | - |
| 1777023029 | 7.22° C | 1% | 1021 hPa | 0 mm | - | 183 W/m² | - |
| 1777022128 | 6.67° C | 1% | 1021.1 hPa | 0 mm | - | 174 W/m² | - |
| 1777021229 | 6.67° C | 1% | 1021.1 hPa | 0 mm | - | 137 W/m² | - |
| 1777020329 | 6.67° C | 1% | 1021.1 hPa | 0 mm | - | 123 W/m² | - |
| 1777019429 | 6.11° C | 1% | 1021.1 hPa | 0 mm | - | 95 W/m² | - |
| 1777018529 | 6.11° C | 1% | 1021 hPa | 0 mm | - | 105 W/m² | - |
| 1777017629 | 6.11° C | 1% | 1020.9 hPa | 0 mm | - | 109 W/m² | - |
* Rain latest hour (hover to see other rain measurements)
** Current wind speed in m/s (hover to see current wind gust speed)